{"data":{"norad_id":25575,"epoch":"2026-05-25T03:56:27.328416Z","epoch_age_seconds":60559,"freshness":"FRESH","line1":"1 25575U 98069F   26145.16420519  .00009873  00000+0  18471-3 0  9992","line2":"2 25575  51.6330  54.0759 0007478  95.4333 264.7509 15.49361343567917","mean_motion":15.49361343,"eccentricity":0.0007478,"inclination_deg":51.633,"raan_deg":54.0759,"arg_perigee_deg":95.4333,"mean_anomaly_deg":264.7509,"bstar":0.00018471,"rev_number":56791,"period_min":92.941521131007,"perigee_km":413.51060446724,"apogee_km":423.67579415333,"semimajor_km":6796.7301993103,"source":"CELESTRAK","updated_at":"2026-05-25T13:37:55.017362Z"}}